Theta_e
307 306 305 306 307 307 308 309 310 309 309 309 309 309 308 308 309 308 307 307 307 307 308 307 307 305 303 304 308 302 306 305 305 307 307 306 306 305 304 303 306 307 308 308 308 309 310 304 304 307 304 303 301 301
307 307 306 306 307 308 308 309 309 309 309 309 309 309 309 308 308 308 307 306 305 305 307 307 307 306 306 305 304 304 303 303 306 306 304 304 307 304 306 309 302 306 308 309 309 310 305 303 304 303 301 300 300 299
307 307 306 306 307 307 308 308 309 308 309 309 309 309 309 309 308 308 307 305 304 304 305 304 305 306 305 305 304 304 303 303 304 304 304 304 307 305 308 306 305 303 303 306 305 305 305 305 303 300 300 300 300 300
307 307 307 306 306 307 308 308 308 309 308 309 309 309 308 309 308 306 305 303 303 303 303 303 303 302 303 303 304 303 303 303 303 304 305 306 306 303 306 305 304 304 302 304 304 304 302 302 301 300 299 298 298 298
307 307 306 306 307 307 308 308 309 309 308 309 309 309 308 307 306 304 302 302 303 303 304 304 303 302 303 303 302 302 302 302 302 303 304 306 303 303 302 301 304 303 306 306 307 302 304 303 299 298 297 296 296 296
306 306 306 306 307 308 308 310 310 309 309 308 308 308 307 305 303 301 303 303 303 302 302 304 301 302 302 302 301 301 301 301 301 302 302 301 301 302 305 305 303 302 303 303 304 302 301 299 298 296 295 294 294 294
306 306 306 306 307 308 309 309 309 310 310 309 308 307 305 303 301 301 302 302 302 302 303 303 302 300 299 299 298 298 299 300 300 301 300 300 300 301 302 305 303 301 301 301 299 299 297 296 295 294 294 294 293 293
306 306 306 307 307 308 308 308 310 309 309 309 306 303 301 300 300 299 299 300 301 301 301 302 302 299 298 297 297 298 298 298 299 299 298 300 299 299 303 302 301 301 298 295 295 295 295 295 295 294 293 293 293 292
306 307 306 306 307 308 308 309 310 309 307 303 301 299 299 298 298 298 297 298 299 299 300 300 301 302 297 297 297 297 297 298 297 299 299 299 300 301 302 301 300 298 296 296 296 295 295 294 294 293 293 292 292 291
306 306 306 307 307 308 309 308 306 307 301 299 298 298 296 296 297 296 297 297 297 298 298 298 298 300 297 296 296 297 296 298 300 298 297 300 301 300 300 300 299 298 296 295 294 294 293 293 292 292 292 292 291 291
305 306 305 305 306 305 305 302 304 300 298 298 296 296 296 296 296 296 296 296 297 297 297 297 297 298 297 299 300 296 299 298 300 299 299 300 299 297 297 298 295 295 295 293 292 292 292 292 292 291 291 291 291 290
304 303 302 301 301 301 300 300 299 299 297 296 295 295 296 295 295 295 295 295 296 297 297 297 296 296 297 297 299 297 300 298 300 296 298 298 298 296 297 298 297 297 295 294 292 292 292 292 291 291 291 291 290 290
298 298 298 298 297 297 297 297 295 295 294 294 295 295 294 293 295 294 293 295 296 295 295 295 296 296 296 297 298 299 300 299 295 298 297 297 295 296 295 295 295 295 293 292 292 292 292 291 291 291 291 290 290 291
296 296 296 296 296 296 296 295 293 294 295 294 295 294 293 292 292 293 292 293 295 296 295 295 295 295 295 296 298 299 297 295 297 297 297 297 295 296 296 296 296 294 292 292 292 292 292 291 291 291 290 290 290 291
295 295 294 294 293 293 293 293 294 296 293 294 293 293 290 290 290 291 292 294 295 295 295 295 294 294 295 296 296 298 297 296 296 297 296 295 296 296 296 296 295 293 292 292 292 292 292 291 291 291 290 290 291 292
294 294 294 293 294 294 294 293 294 294 292 293 292 290 288 290 289 290 291 293 295 296 296 296 296 296 297 296 296 297 298 296 296 296 296 297 297 297 297 295 294 293 293 293 292 292 292 291 291 291 290 291 292 291
295 295 295 295 295 294 293 293 293 292 292 291 291 291 291 291 291 292 293 294 295 296 297 295 296 295 290 295 297 297 296 295 294 294 294 295 295 295 294 294 293 293 293 292 292 292 292 291 291 291 291 292 291 291
294 294 293 294 294 294 293 293 293 292 292 291 291 291 292 292 292 293 293 293 294 295 295 295 292 291 292 291 292 293 293 293 293 293 293 293 294 293 293 293 293 292 292 292 292 292 291 291 291 290 291 291 291 291
293 293 293 293 293 294 294 293 293 292 291 291 291 292 292 292 293 293 293 293 293 294 295 292 293 292 293 292 293 293 294 293 293 293 293 293 292 292 292 292 292 292 291 291 291 291 291 291 290 290 291 290 290 290
291 291 291 292 292 292 292 292 291 291 289 291 291 292 292 292 292 293 292 292 292 292 291 290 292 293 293 293 293 292 292 292 292 292 292 292 292 291 291 291 291 291 291 291 291 291 291 291 290 290 290 290 290 290
291 291 291 291 292 291 291 291 291 290 289 289 290 290 291 291 291 292 292 292 291 291 291 292 292 292 292 292 291 291 291 291 291 291 292 291 291 291 291 291 291 291 291 291 290 291 290 291 290 290 289 289 289 289
290 291 291 291 291 291 291 290 290 290 289 288 289 290 290 289 290 290 291 289 290 291 291 291 291 291 291 291 290 290 290 290 290 290 290 290 290 290 290 290 290 290 290 290 290 290 291 290 290 290 290 289 289 289
289 290 290 291 291 291 290 290 289 289 288 286 285 285 286 286 289 288 289 289 290 290 290 290 290 290 290 290 290 290 290 290 289 289 289 289 289 289 289 289 289 289 289 290 290 290 290 290 290 290 289 289 289 289
290 290 290 290 290 288 288 288 289 286 284 284 282 282 281 285 286 285 285 289 289 289 289 289 289 289 289 289 289 289 290 289 289 289 290 289 289 289 289 289 290 289 290 290 290 290 290 289 289 289 289 289 289 289
289 289 289 289 289 286 286 286 287 286 284 283 282 281 281 285 283 281 283 288 289 289 289 289 289 289 289 289 289 290 291 290 289 290 291 290 290 290 290 290 290 290 290 290 290 290 290 290 290 290 289 289 289 289
285 289 288 287 284 286 286 284 284 283 280 279 279 284 282 280 278 285 284 290 290 290 290 290 290 290 289 290 290 290 290 290 290 290 290 290 290 290 291 290 290 291 291 290 290 290 290 290 289 289 289 289 289 289
284 283 288 288 287 287 285 284 284 281 279 280 282 278 281 284 284 285 290 290 290 290 290 290 290 290 290 290 290 290 290 290 290 290 290 290 290 290 290 290 290 291 291 291 290 290 289 289 289 288 288 288 289 290
289 287 286 288 288 288 282 281 280 281 283 286 283 279 283 284 288 290 290 290 290 290 290 290 290 290 290 290 290 290 290 289 289 289 289 289 289 289 289 290 290 290 290 290 290 289 289 289 289 288 288 289 289 289
289 290 289 285 288 287 287 284 284 290 290 288 285 288 286 290 290 290 290 290 290 290 289 289 289 289 289 289 289 289 289 289 289 289 289 288 289 289 288 288 289 289 289 289 289 288 288 288 288 288 288 289 289 289
288 289 289 285 285 287 288 289 290 290 290 290 290 289 289 289 290 290 289 289 289 289 289 289 289 289 289 289 289 289 289 289 289 288 288 288 289 288 288 288 288 288 288 288 288 288 288 288 289 289 289 289 289 289
290 289 288 286 284 289 290 289 289 289 289 289 289 288 289 289 289 290 289 289 289 289 289 289 289 289 289 289 289 289 289 289 289 288 288 288 288 288 288 288 288 288 288 288 288 288 288 288 289 289 289 289 289 289
288 288 286 283 286 290 289 289 289 289 289 289 288 288 288 288 288 288 290 290 289 289 289 289 289 289 289 289 289 288 288 288 288 288 288 288 288 288 288 288 288 288 288 288 288 288 289 289 289 289 289 289 289 288
283 283 282 284 286 287 289 288 288 286 287 287 288 289 288 288 287 289 289 289 289 289 289 289 289 289 289 289 289 289 289 289 289 290 290 289 289 288 288 288 288 288 288 288 288 288 289 288 289 289 289 288 287 287
Wind_Speed
28 24 20 23 21 19 16 15 14 13 10 7 4 3 4 5 7 8 7 7 5 3 5 7 7 5 5 4 2 5 3 3 2 4 3 3 3 3 2 4 6 8 8 5 5 6 7 1 4 3 3 7 13 16
30 26 23 25 25 22 20 18 16 14 12 8 5 4 4 6 7 7 8 8 7 5 5 7 10 10 10 8 5 8 1 2 4 2 2 1 3 3 3 3 4 5 6 5 9 5 2 6 2 1 6 9 10 11
31 28 25 28 26 24 23 21 19 16 13 10 7 6 5 6 7 7 9 9 8 3 6 5 7 10 12 15 14 6 4 6 3 4 2 1 5 2 3 5 3 5 7 3 3 5 9 10 5 4 5 7 11 11
33 30 28 29 28 26 21 22 21 18 15 13 10 8 7 7 9 9 9 10 7 1 1 2 5 4 5 6 13 18 10 6 5 5 2 2 2 3 2 3 4 1 8 5 6 6 1 8 3 4 7 10 13 13
36 33 32 33 31 27 22 20 21 19 17 15 13 11 9 7 7 8 10 10 6 3 3 3 7 10 10 12 12 11 16 15 6 3 3 3 2 3 2 2 5 8 7 5 7 1 1 2 5 8 11 14 16 19
35 32 35 35 33 29 26 23 21 19 20 16 15 13 10 8 6 5 2 0 6 5 3 1 3 4 5 5 5 8 12 10 7 5 4 4 5 5 3 3 4 3 4 6 4 5 7 4 3 8 11 15 17 19
38 36 36 37 34 30 28 26 23 24 22 21 17 14 10 8 7 4 3 5 5 1 2 4 1 1 2 3 3 3 7 5 6 4 4 2 3 5 2 6 4 5 6 6 6 5 6 4 2 8 13 16 19 21
37 36 37 36 34 32 29 28 29 24 27 20 16 13 10 9 9 10 11 11 8 4 3 2 2 2 5 3 2 5 5 5 5 2 2 3 2 3 5 10 8 4 7 8 8 8 7 3 6 10 15 18 22 26
36 36 36 34 35 34 34 31 34 30 25 19 16 13 8 6 5 7 9 6 9 6 3 4 3 1 5 3 3 3 3 2 3 4 4 5 3 6 7 8 4 13 10 9 5 3 6 11 16 21 22 24 24 30
39 38 37 36 32 37 38 44 36 31 26 23 17 8 5 5 7 7 3 4 5 5 4 3 4 1 6 4 2 3 2 2 2 3 3 3 5 14 10 6 11 13 10 6 4 8 13 17 21 24 25 27 30 35
39 35 32 32 32 34 36 33 30 26 24 19 8 7 10 11 6 4 3 3 4 3 6 5 6 2 3 2 2 4 2 2 3 2 3 3 4 5 12 16 18 14 4 2 7 11 12 14 19 24 29 31 33 36
33 32 35 36 34 32 31 29 29 29 16 13 7 13 11 5 3 2 2 2 4 4 5 4 4 6 3 5 2 3 2 2 4 6 3 3 4 6 8 16 27 8 6 10 14 17 19 21 24 27 32 37 39 41
29 30 31 30 28 27 28 26 23 19 20 16 6 5 6 4 4 7 8 4 3 7 7 6 4 5 4 5 3 3 4 3 4 3 4 5 3 19 19 17 12 5 9 15 17 20 23 26 28 31 36 38 42 44
25 25 25 25 25 24 24 23 20 20 18 5 6 5 5 4 5 5 4 3 4 6 13 11 4 4 3 3 2 3 2 3 3 4 6 3 20 27 18 12 5 13 19 22 23 25 27 29 32 35 38 41 43 44
20 20 20 19 18 17 17 18 20 21 6 4 5 4 5 3 2 4 6 3 6 8 12 7 3 4 3 2 3 3 4 5 5 5 3 5 22 25 16 7 16 26 25 28 29 31 29 30 33 38 39 41 42 42
17 17 17 17 17 18 19 17 17 14 2 3 3 3 2 2 3 5 8 7 8 9 7 3 3 2 5 3 6 8 4 7 3 3 7 7 8 23 16 20 32 32 34 37 37 32 29 31 34 37 40 41 38 41
16 11 16 15 17 18 16 18 12 6 5 2 3 8 8 1 3 8 8 7 11 10 3 3 4 9 1 4 4 4 5 3 5 6 12 15 17 24 30 35 35 39 43 43 35 30 31 34 36 38 40 37 40 42
11 11 17 18 19 19 20 15 7 6 5 6 5 9 14 8 3 4 6 7 12 10 6 5 3 5 5 5 3 4 11 19 30 36 39 36 33 35 39 43 47 47 43 36 31 32 35 36 37 38 37 39 42 44
12 13 15 18 18 15 6 7 6 4 9 4 12 9 12 9 14 14 12 10 13 10 5 4 5 4 5 9 15 25 30 32 33 34 32 37 37 43 43 41 38 39 39 34 36 39 40 37 36 35 34 37 40 43
12 12 13 15 17 11 4 3 4 3 4 6 9 12 12 12 15 17 17 17 18 11 8 5 7 22 24 31 35 40 42 41 36 34 36 35 33 32 32 36 40 41 40 42 42 40 39 36 33 32 34 37 39 42
12 12 13 17 18 10 5 5 5 4 4 5 7 12 5 12 15 17 20 20 14 8 9 22 32 39 43 47 49 43 42 43 40 36 35 37 40 38 37 38 39 38 41 41 40 40 35 35 33 30 33 37 40 41
14 14 14 17 8 6 6 10 5 5 5 3 4 7 5 5 9 15 15 18 13 28 33 36 38 38 38 41 47 48 45 43 43 40 40 39 37 38 38 39 38 36 36 40 40 39 37 34 32 32 35 40 42 42
12 13 9 8 5 12 5 10 6 6 3 4 3 2 4 5 6 9 8 14 23 39 39 39 43 43 43 47 47 47 49 49 44 43 43 41 37 37 37 41 42 34 39 40 35 34 33 31 32 32 35 39 42 41
13 9 7 6 9 2 4 3 3 2 1 2 3 4 4 8 8 8 5 19 32 35 32 36 34 39 40 38 40 39 35 35 34 38 39 35 36 40 35 36 36 36 35 33 33 31 29 29 30 31 36 40 41 39
6 6 5 5 7 5 5 4 5 4 4 5 4 4 4 7 3 4 6 22 26 35 35 32 30 31 35 37 36 36 32 34 31 33 34 32 33 34 35 35 34 32 30 32 31 30 28 31 34 35 37 40 40 38
5 13 11 12 7 7 9 6 8 8 4 5 8 5 3 2 1 7 4 16 23 26 26 28 30 32 33 36 38 40 43 42 34 33 43 40 37 36 35 34 33 31 28 29 32 31 32 35 38 40 40 40 36 33
6 7 8 10 8 6 4 3 4 3 6 7 4 4 3 4 7 7 23 26 28 29 30 33 34 37 42 44 43 46 48 47 41 42 43 40 38 39 40 39 38 35 33 33 34 36 38 39 40 39 40 35 33 33
7 14 8 14 9 9 5 3 6 7 5 9 7 5 7 8 10 29 37 43 41 42 46 48 47 46 48 51 50 49 48 43 40 42 42 42 42 40 39 40 40 39 37 38 38 35 33 33 33 33 32 32 33 33
6 9 16 7 6 6 11 8 8 15 23 15 5 8 13 37 42 46 52 49 48 46 48 52 54 46 44 44 44 40 38 35 32 34 34 39 41 40 32 32 32 31 28 27 27 27 27 26 26 26 28 30 32 32
9 17 10 9 7 9 20 21 29 36 29 30 33 35 40 46 58 51 49 51 48 45 47 44 44 41 40 37 39 36 32 30 28 28 31 33 33 30 27 26 27 25 23 24 25 25 22 20 21 22 26 29 28 29
9 19 8 11 10 29 40 35 34 35 38 41 38 36 47 55 56 54 45 46 41 36 34 32 29 27 26 24 26 29 27 22 22 23 23 25 26 26 25 23 21 20 20 21 22 22 22 22 22 25 26 25 26 25
14 16 10 5 12 31 28 26 27 25 32 27 32 32 37 27 23 32 32 23 22 24 24 24 26 25 23 27 28 27 28 28 27 25 26 26 26 24 23 22 21 20 21 21 21 20 20 20 21 22 24 23 23 21
6 7 7 6 6 6 9 8 6 8 12 12 19 26 25 15 10 21 21 17 16 16 16 16 18 19 20 21 22 22 23 24 24 25 26 27 27 26 24 23 21 20 20 20 19 18 19 20 22 21 21 21 19 14
Wind_Direction
233 235 241 212 215 221 227 221 220 223 223 228 259 302 340 355 3 9 8 359 359 297 258 232 223 190 179 183 208 152 157 179 132 201 217 199 220 194 213 166 177 180 166 188 193 231 275 110 141 271 5 319 328 320
233 233 230 210 213 221 223 225 224 225 223 220 222 259 302 328 340 350 352 344 327 285 266 232 226 235 235 217 195 190 294 161 191 169 219 144 211 193 226 257 202 221 213 182 205 214 131 173 80 66 325 306 317 316
231 234 233 215 214 221 223 220 222 221 223 228 234 251 283 309 323 330 336 333 335 310 284 266 247 240 246 235 221 194 220 210 200 200 159 21 253 169 226 239 254 230 189 232 187 179 215 244 149 345 14 358 357 357
225 229 230 219 216 220 222 220 219 220 224 236 241 248 262 285 301 312 317 316 318 277 305 292 234 237 231 224 223 223 225 197 193 183 187 211 241 199 249 302 247 351 159 208 252 264 244 165 78 30 20 9 359 359
224 227 228 216 216 215 220 222 220 223 225 231 244 249 259 268 283 298 302 302 291 225 178 256 268 262 257 258 237 228 226 222 206 178 179 216 203 209 226 276 239 209 228 235 272 106 348 327 11 18 10 11 5 358
222 223 215 211 213 217 218 226 225 223 229 231 240 243 248 262 274 292 275 189 115 77 320 283 258 255 259 251 232 221 224 214 200 193 212 232 192 188 228 246 256 254 245 209 222 230 272 298 79 15 14 5 1 358
216 212 213 209 213 218 220 230 223 224 231 230 237 238 235 244 246 226 244 184 186 352 297 302 280 220 184 162 161 172 192 204 194 200 227 243 216 214 236 237 198 136 194 208 206 172 132 93 69 17 358 349 344 340
211 210 213 211 212 218 224 233 223 228 225 220 214 215 217 224 239 236 233 219 217 222 224 259 271 244 194 184 174 173 168 188 211 233 218 214 203 218 253 246 249 232 169 133 108 100 101 56 351 339 334 333 329 331
211 213 215 217 222 225 227 237 223 220 215 196 190 178 184 226 224 225 216 203 192 208 200 204 218 229 169 158 141 155 182 198 198 225 212 187 192 225 234 234 223 178 161 139 105 76 349 337 333 335 333 332 326 325
210 217 216 219 232 228 225 209 195 205 181 178 171 168 178 190 157 149 153 188 184 207 228 248 215 188 168 169 155 147 175 223 230 205 186 230 253 237 225 170 170 169 149 123 36 352 342 332 332 329 327 325 323 324
214 215 218 215 209 199 190 186 186 165 163 160 153 160 157 148 146 154 167 181 188 235 216 225 205 211 197 186 160 200 191 190 251 171 227 235 259 214 188 198 155 140 130 15 344 338 334 322 319 321 323 325 322 319
197 191 175 171 179 179 176 172 165 169 161 151 171 139 147 161 147 172 191 236 213 230 188 177 179 187 208 197 195 196 235 183 254 150 234 250 243 200 207 202 184 201 278 304 332 332 330 326 325 321 321 321 321 321
144 155 154 149 149 150 148 150 154 150 143 145 165 160 167 158 181 195 187 203 209 184 184 174 167 171 185 190 202 192 227 230 141 218 235 234 214 158 143 142 159 218 314 324 321 321 323 326 327 325 321 319 322 322
129 131 135 138 140 143 142 146 145 154 149 155 170 183 207 180 226 195 180 178 168 163 167 173 141 165 171 169 188 228 178 159 239 234 239 226 190 177 177 187 234 315 324 316 316 323 325 325 322 320 321 323 321 318
125 126 128 130 134 142 148 157 163 171 170 171 178 219 201 210 184 167 191 183 166 165 154 150 137 170 164 218 207 198 198 236 227 234 247 280 196 190 193 251 310 326 321 320 321 321 316 316 317 317 319 319 316 317
144 145 153 155 159 163 166 165 171 181 222 216 200 150 169 170 196 188 197 199 167 155 150 138 142 193 224 214 199 210 216 217 238 223 281 301 233 210 243 294 309 312 312 314 316 316 307 310 314 315 317 317 318 322
158 155 158 162 168 171 173 174 168 185 210 178 244 228 204 276 163 190 187 174 184 168 190 165 196 220 128 223 217 203 216 220 205 295 307 292 274 275 283 289 301 306 306 308 309 305 307 312 312 312 313 319 320 320
179 164 170 172 179 176 179 182 184 199 209 191 200 216 216 228 194 196 208 204 183 194 180 215 200 198 213 211 224 234 256 280 292 296 295 294 296 298 297 296 298 300 301 303 302 307 307 309 308 310 316 318 317 318
189 179 181 192 192 178 174 189 201 215 207 186 207 216 217 231 242 252 254 247 227 223 233 210 239 221 240 251 266 273 276 280 281 283 282 288 287 290 293 296 297 303 305 304 304 303 304 301 301 305 315 317 316 317
185 183 187 185 194 186 181 207 204 212 195 203 199 211 215 225 242 246 251 252 245 234 224 221 239 252 259 265 267 270 275 278 279 282 285 286 288 291 289 293 294 299 299 301 299 298 297 299 300 310 316 315 313 313
185 182 181 188 187 187 191 200 210 215 206 207 215 217 228 231 236 240 242 241 225 227 240 245 250 256 260 264 268 270 272 274 276 279 283 287 287 286 285 283 284 286 286 288 289 290 292 292 298 308 312 315 319 317
190 196 188 191 195 199 219 207 222 192 184 194 186 213 232 219 229 239 238 208 229 237 242 249 254 257 263 266 271 277 277 280 279 279 282 281 280 282 282 281 280 280 279 282 285 288 294 294 299 305 309 314 317 316
192 191 190 201 221 201 201 192 182 205 180 187 200 247 238 225 228 200 217 229 245 259 259 259 267 275 269 278 279 279 282 280 277 278 278 277 278 277 276 278 281 275 279 291 290 292 293 297 301 303 308 313 315 314
183 183 187 199 200 189 160 141 156 167 134 188 205 252 252 226 200 204 239 250 258 268 268 269 270 274 279 277 276 285 294 291 280 288 293 278 277 287 282 285 287 283 282 287 289 288 291 297 305 306 307 309 312 312
174 201 194 195 178 138 169 192 206 195 240 202 207 259 241 196 204 236 244 262 265 270 274 277 275 270 266 280 287 286 292 286 281 285 300 289 286 289 290 291 291 291 289 282 281 284 290 300 304 307 307 306 308 311
192 201 188 196 191 174 186 191 202 205 181 197 225 245 211 160 185 245 228 276 272 274 281 284 284 285 280 287 284 286 289 295 287 283 292 292 288 284 286 285 288 291 280 276 279 285 293 299 302 304 301 302 305 308
197 220 196 198 183 178 180 206 177 168 183 207 219 172 173 221 240 242 275 277 281 290 294 291 285 283 284 287 286 287 292 291 284 285 291 286 284 282 281 277 276 280 289 295 292 290 292 299 301 298 297 300 302 305
208 181 177 186 188 198 172 182 179 209 225 217 157 187 202 211 254 273 283 291 291 290 291 291 291 289 287 286 288 289 289 286 284 287 288 284 280 278 275 275 277 280 283 284 287 291 290 291 291 293 295 297 299 302
196 189 190 169 158 196 217 205 218 235 240 223 208 248 250 261 275 282 285 286 287 288 289 289 289 289 288 291 293 294 292 290 286 285 287 286 288 283 282 282 280 280 281 283 282 281 282 282 286 288 291 294 298 304
205 191 190 175 185 213 234 226 247 257 261 257 258 264 270 272 277 283 282 284 283 284 284 285 286 287 286 289 293 296 300 301 294 286 282 285 292 305 306 299 293 289 287 285 281 279 277 277 278 281 285 288 293 299
194 194 216 209 225 247 254 260 263 268 269 269 268 262 266 277 290 291 287 288 290 293 291 293 299 304 301 303 303 304 302 299 304 304 302 299 298 297 296 296 292 285 280 275 272 276 280 280 284 287 289 291 299 305
197 196 199 223 253 264 267 269 272 268 270 266 262 264 269 272 269 286 301 305 299 295 301 304 300 303 301 299 299 298 299 300 299 297 296 293 290 290 291 286 279 275 273 272 273 276 278 281 286 287 289 297 303 306
206 228 236 281 277 246 252 234 249 272 258 259 266 267 260 249 250 287 304 303 297 302 309 312 313 311 309 309 308 306 302 298 298 302 304 302 296 290 288 283 275 271 271 272 275 280 284 286 284 287 293 298 303 304